HAVEL LYPN-LYBJ

Flight info

Callsign HAVEL
Flight time 0h 35m
Altitude 2500
Route MOST6 DCT KOCA8 DCT MIHA5 DCT YEZA7 DCT 4444N02059E DCT TAMI3 PA ZEMO7 KOVWU
Aircraft DA42/L-SDE3FGHIRWY/S

Departure

Time 2026-04-12 07:47
Airport Paracín / Davidovac Airfield (LYPN)

Arrival

Time 2026-04-12 08:22
Airport Lisičji Jarak Airfield (LYBJ)
Time Latitude Longitude Altitude Speed Heading
2026-04-12 07:47 43.88232 21.46344 2497 ft 163 kts 282°
2026-04-12 07:47 43.88484 21.44790 2491 ft 168 kts 282°
2026-04-12 07:47 43.88655 21.43735 2495 ft 170 kts 282°
2026-04-12 07:47 43.88944 21.42121 2489 ft 174 kts 292°
2026-04-12 07:48 43.89767 21.40960 2485 ft 171 kts 335°
2026-04-12 07:48 43.91225 21.40165 2487 ft 170 kts 340°
2026-04-12 07:48 43.91958 21.39791 2486 ft 169 kts 341°
2026-04-12 07:48 43.93068 21.39224 2493 ft 171 kts 340°
2026-04-12 07:49 43.94179 21.38655 2488 ft 169 kts 340°
2026-04-12 07:49 43.95098 21.37664 2486 ft 171 kts 302°
2026-04-12 07:49 43.95536 21.36137 2481 ft 171 kts 287°
2026-04-12 07:49 43.95876 21.34574 2488 ft 171 kts 286°
2026-04-12 07:50 43.96220 21.32985 2489 ft 173 kts 287°
2026-04-12 07:50 43.96568 21.31384 2490 ft 173 kts 286°
2026-04-12 07:50 43.96990 21.29821 2489 ft 173 kts 299°
2026-04-12 07:50 43.97704 21.28482 2488 ft 172 kts 314°
2026-04-12 07:51 43.98647 21.27479 2485 ft 171 kts 333°
2026-04-12 07:51 43.99762 21.26976 2488 ft 171 kts 348°
2026-04-12 07:51 44.00932 21.26610 2490 ft 172 kts 348°
2026-04-12 07:51 44.02106 21.26252 2493 ft 173 kts 348°
2026-04-12 07:52 44.03253 21.25737 2485 ft 174 kts 334°
2026-04-12 07:52 44.04271 21.24827 2490 ft 175 kts 323°
2026-04-12 07:52 44.05121 21.23611 2494 ft 178 kts 305°
2026-04-12 07:52 44.05764 21.22125 2498 ft 180 kts 299°
2026-04-12 07:53 44.06432 21.20645 2487 ft 181 kts 311°
2026-04-12 07:53 44.07309 21.19450 2483 ft 176 kts 321°
2026-04-12 07:53 44.08279 21.18404 2495 ft 177 kts 323°
2026-04-12 07:53 44.09273 21.17368 2486 ft 177 kts 323°
2026-04-12 07:54 44.10260 21.16332 2494 ft 178 kts 323°
2026-04-12 07:54 44.11249 21.15297 2491 ft 178 kts 323°
2026-04-12 07:54 44.12235 21.14266 2493 ft 177 kts 323°
2026-04-12 07:54 44.13218 21.13230 2494 ft 177 kts 323°
2026-04-12 07:55 44.14187 21.12208 2495 ft 177 kts 323°
2026-04-12 07:55 44.15220 21.11269 2488 ft 177 kts 337°
2026-04-12 07:55 44.16407 21.10893 2495 ft 175 kts 358°
2026-04-12 07:55 44.17621 21.10909 2499 ft 172 kts
2026-04-12 07:56 44.18822 21.10972 2494 ft 172 kts
2026-04-12 07:56 44.20011 21.11036 2491 ft 171 kts
2026-04-12 07:56 44.21200 21.11102 2491 ft 170 kts
2026-04-12 07:56 44.22377 21.11169 2491 ft 168 kts
2026-04-12 07:57 44.23532 21.11230 2493 ft 169 kts
2026-04-12 07:57 44.24717 21.11228 2495 ft 171 kts 356°
2026-04-12 07:57 44.25901 21.11065 2493 ft 171 kts 356°
2026-04-12 07:57 44.27080 21.10803 2500 ft 172 kts 348°
2026-04-12 07:58 44.28255 21.10424 2496 ft 174 kts 345°
2026-04-12 07:58 44.29413 21.09924 2498 ft 174 kts 343°
2026-04-12 07:58 44.30565 21.09407 2493 ft 173 kts 343°
2026-04-12 07:58 44.31717 21.08895 2492 ft 174 kts 343°
2026-04-12 07:59 44.32870 21.08379 2496 ft 172 kts 343°
2026-04-12 07:59 44.34004 21.07871 2493 ft 174 kts 343°
2026-04-12 07:59 44.35173 21.07410 2495 ft 171 kts 347°
2026-04-12 07:59 44.36324 21.07014 2501 ft 174 kts 348°
2026-04-12 08:00 44.37503 21.06586 2486 ft 174 kts 347°
2026-04-12 08:00 44.38669 21.06176 2514 ft 169 kts 347°
2026-04-12 08:00 44.39815 21.05769 2503 ft 169 kts 347°
2026-04-12 08:00 44.40938 21.05377 2503 ft 162 kts 347°
2026-04-12 08:01 44.42021 21.04992 2503 ft 160 kts 347°
2026-04-12 08:01 44.43096 21.04616 2497 ft 157 kts 348°
2026-04-12 08:01 44.44123 21.04248 2498 ft 152 kts 347°
2026-04-12 08:01 44.45154 21.03875 2488 ft 152 kts 347°
2026-04-12 08:02 44.46173 21.03510 2506 ft 152 kts 349°
2026-04-12 08:02 44.47203 21.03128 2496 ft 152 kts 347°
2026-04-12 08:02 44.48227 21.02766 2492 ft 150 kts 347°
2026-04-12 08:02 44.49238 21.02402 2498 ft 153 kts 347°
2026-04-12 08:03 44.50262 21.02032 2497 ft 151 kts 347°
2026-04-12 08:03 44.51255 21.01670 2501 ft 148 kts 347°
2026-04-12 08:03 44.52250 21.01308 2504 ft 147 kts 347°
2026-04-12 08:03 44.53244 21.00915 2501 ft 149 kts 343°
2026-04-12 08:04 44.54213 21.00387 2506 ft 150 kts 340°
2026-04-12 08:04 44.55187 20.99852 2501 ft 150 kts 341°
2026-04-12 08:04 44.56154 20.99311 2499 ft 148 kts 340°
2026-04-12 08:04 44.57101 20.98785 2504 ft 150 kts 340°
2026-04-12 08:05 44.58068 20.98247 2502 ft 149 kts 340°
2026-04-12 08:05 44.59041 20.97713 2502 ft 150 kts 341°
2026-04-12 08:05 44.60038 20.97235 2496 ft 150 kts 343°
2026-04-12 08:05 44.61040 20.96765 2504 ft 153 kts 343°
2026-04-12 08:06 44.62033 20.96298 2496 ft 150 kts 344°
2026-04-12 08:06 44.63032 20.95833 2507 ft 152 kts 346°
2026-04-12 08:06 44.64068 20.95490 2509 ft 154 kts 351°
2026-04-12 08:06 44.65126 20.95207 2505 ft 155 kts 351°
2026-04-12 08:07 44.66180 20.94930 2491 ft 150 kts 352°
2026-04-12 08:07 44.67206 20.94652 2504 ft 152 kts 352°
2026-04-12 08:07 44.68252 20.94405 2503 ft 154 kts 356°
2026-04-12 08:07 44.69248 20.94725 2496 ft 145 kts 25°
2026-04-12 08:08 44.70155 20.95311 2509 ft 143 kts 30°
2026-04-12 08:08 44.71060 20.95909 2490 ft 142 kts 27°
2026-04-12 08:08 44.71952 20.96490 2526 ft 143 kts 26°
2026-04-12 08:08 44.72863 20.97080 2497 ft 148 kts 24°
2026-04-12 08:09 44.73891 20.97100 2497 ft 150 kts 352°
2026-04-12 08:09 44.74909 20.96813 2498 ft 151 kts 346°
2026-04-12 08:09 44.75828 20.96072 2501 ft 156 kts 320°
2026-04-12 08:09 44.76599 20.94996 2494 ft 155 kts 317°
2026-04-12 08:10 44.77384 20.93951 2508 ft 156 kts 319°
2026-04-12 08:10 44.78193 20.92887 2504 ft 161 kts 319°
2026-04-12 08:10 44.79011 20.91825 2492 ft 157 kts 319°
2026-04-12 08:10 44.79796 20.90770 2493 ft 157 kts 318°
2026-04-12 08:11 44.80604 20.89694 2501 ft 162 kts 319°
2026-04-12 08:11 44.81387 20.88576 2498 ft 160 kts 309°
2026-04-12 08:11 44.81898 20.87194 2496 ft 162 kts 294°
2026-04-12 08:11 44.82330 20.85735 2498 ft 160 kts 293°
2026-04-12 08:12 44.82760 20.84273 2501 ft 162 kts 292°
2026-04-12 08:12 44.83198 20.82785 2499 ft 166 kts 294°
2026-04-12 08:12 44.83643 20.81293 2522 ft 161 kts 292°
2026-04-12 08:12 44.84072 20.79834 2508 ft 163 kts 292°
2026-04-12 08:13 44.84490 20.78374 2491 ft 158 kts 293°
2026-04-12 08:13 44.84903 20.76971 2489 ft 156 kts 294°
2026-04-12 08:13 44.85314 20.75585 2488 ft 153 kts 295°
2026-04-12 08:13 44.85730 20.74174 2503 ft 152 kts 293°
2026-04-12 08:14 44.86142 20.72780 2491 ft 155 kts 294°
2026-04-12 08:14 44.86551 20.71386 2513 ft 154 kts 293°
2026-04-12 08:14 44.86960 20.69975 2501 ft 155 kts 294°
2026-04-12 08:14 44.87373 20.68554 2502 ft 158 kts 293°
2026-04-12 08:15 44.87777 20.67172 2509 ft 154 kts 294°
2026-04-12 08:15 44.88181 20.65780 2509 ft 152 kts 294°
2026-04-12 08:15 44.88588 20.64391 2515 ft 155 kts 294°
2026-04-12 08:15 44.89008 20.62947 2508 ft 159 kts 292°
2026-04-12 08:16 44.89424 20.61507 2500 ft 159 kts 293°
2026-04-12 08:16 44.89840 20.60088 2503 ft 155 kts 294°
2026-04-12 08:16 44.90249 20.58684 2520 ft 159 kts 293°
2026-04-12 08:16 44.90671 20.57254 2517 ft 156 kts 293°
2026-04-12 08:17 44.91088 20.55814 2482 ft 161 kts 294°
2026-04-12 08:17 44.91517 20.54382 2500 ft 161 kts 294°
2026-04-12 08:17 44.91934 20.52923 2495 ft 162 kts 292°
2026-04-12 08:17 44.92363 20.51467 2528 ft 153 kts 296°
2026-04-12 08:18 44.93037 20.50334 2502 ft 150 kts 315°
2026-04-12 08:18 44.93791 20.49347 2509 ft 146 kts 320°
2026-04-12 08:18 44.94527 20.48411 2511 ft 143 kts 321°
2026-04-12 08:18 44.95238 20.47494 2490 ft 131 kts 320°
2026-04-12 08:19 44.95886 20.46658 2496 ft 121 kts 324°
2026-04-12 08:19 44.96512 20.45838 2500 ft 125 kts 320°
2026-04-12 08:19 44.97144 20.45026 2394 ft 122 kts 320°
2026-04-12 08:19 44.97820 20.44198 2237 ft 134 kts 323°
2026-04-12 08:20 44.98551 20.43310 2014 ft 147 kts 321°
2026-04-12 08:20 44.99088 20.42114 1889 ft 145 kts 272°
2026-04-12 08:20 44.98668 20.40983 1726 ft 130 kts 202°
2026-04-12 08:20 44.97902 20.41148 1496 ft 110 kts 134°
2026-04-12 08:21 44.97303 20.41705 1305 ft 102 kts 144°
2026-04-12 08:21 44.96720 20.42242 1094 ft 98 kts 144°
2026-04-12 08:21 44.96150 20.42717 951 ft 91 kts 147°
2026-04-12 08:21 44.95652 20.43138 747 ft 80 kts 145°
2026-04-12 08:22 44.95176 20.43547 598 ft 79 kts 144°
2026-04-12 08:22 44.94698 20.43949 408 ft 81 kts 144°
2026-04-12 08:22 44.94251 20.44315 238 ft 61 kts 145°
2026-04-12 08:22 44.93983 20.44540 238 ft 34 kts 149°
2026-04-12 08:23 44.93792 20.44702 236 ft 29 kts 149°
2026-04-12 08:23 44.93651 20.44819 235 ft 20 kts 153°
2026-04-12 08:23 44.93580 20.44728 237 ft 17 kts 255°
2026-04-12 08:23 44.93548 20.44563 237 ft 17 kts 255°
2026-04-12 08:24 44.93527 20.44426 238 ft 12 kts 259°
2026-04-12 08:24 44.93490 20.44385 238 ft 0 kts 163°
2026-04-12 08:24 44.93484 20.44388 238 ft 0 kts 177°
2026-04-12 08:28 44.93485 20.44388 238 ft 0 kts 177°